Torna al catalogo

SL-16 DEB

AttivoLEO
NORAD 22806·DEBRIS·🇷🇺 Russia

Lanciato Sep 16, 1993 da Baikonur Cosmodrome

Loading…

Prossimi Passaggi (prossime 24 ore)

TLE

AggiornatoSource: Space-Track

Epoca: Sep 14, 2026, 06:50 UTC

1 22806U 93059E   26257.28531316  .00000026  00000-0  63954-4 0  9994
2 22806  71.0206 349.8071 0201737 236.7654 153.3148 13.73947947653363

Traccia SL-16 DEB in tempo reale con AllMySat

Download on the App Store